STARLINK-11613, 63136

Orbit data source: Space-Track

STARLINK-11613, 63136 is a payload satellite owned by SpaceX/Seattle (US) in LEO that was launched on Mon, 03 Mar 2025 UTC via an FALCON 9 launch vehicle from the Air Force Eastern Test Range (AFETR). Payload-class satellites include a variety of spacecraft equipped with specific instruments for various scientific and technological missions. These include communications satellites like Starlink; space stations such as the ISS; scientific satellites like the Hubble; Earth observation satellites from companies like Planet Labs, Umbra, and HawkEye 360; GPS; miniature CubeSats for education and research; and military/defense satellites.

Loading next visibility...
Identifier
63136, 2025-043E
Orbit
LEO
Last TLE update
11 hours ago
Origin
Manufacturer
SpaceX/Seattle
Mission
Operational Commercial Communications
Bus & Motor
STARLINK V2M, Unknown motor
Mass
730 kg wet, ~700 kg dry
Launch date (UTC)
2025-03-03 (4 months ago)
Launch vehicle
FALCON 9
Launch site
Air Force Eastern Test Range (AFETR)
Object type
Payload
Rocket body
Debris
Shape & HBR
Box + 2 Pan, 29 m
Radar Cross Section
36.964 m², Large (>1 m²)

Expand to show TLE details & history

TLE from 11 hours ago
0 STARLINK-11613
1 63136U 25043E   25182.12441747  .00243648  00000-0  18439-2 0  9995
2 63136  42.9989 327.4102 0001057  36.6188 323.4752 15.70882212 19907
Epoch: 2025-07-01T02:59Z
TLE epoch observation values (Epoch: 2025-07-01T02:59:09.669Z)
Latitude
Longitude
3.19554°
Altitude
355.574 km
Speed
7.698 km/s
True Right ascension
21h 49m 38s
True Declination
0° 00' 00"
Sunlit
Object was in full shadow at epoch
Visualization orbit readout
Latitude
-8.65196°
Longitude
-8.81389°
Altitude
356.632 km
Speed
7.697 km/s
Apparent Right ascension
18h 03m 56s
Apparent Declination
-39° 01' 05"
Sunlit
Object is in full shadow
Visualization observer readout
Local Sidereal Time
01:15:45
Azimuth
245.993° WSW
Elevation
-35.993°
Doppler factor
1
Orbital elements
Apogee altitude
359.068 km
Perigee altitude
357.644 km
Semi-major axis
6,736.493 km
Eccentricity
0.00011
Inclination
42.9989°
RAAN
327.4102°
Arg. of periapsis
36.6188°
True anomaly
Unknown
Mean anomaly
323.4752°
Eccentric anomaly
Unknown
Mean motion
3.92548 °/min
Orbital period
91.71 mins
BSTAR
0.0018439
Loading maneuver chart data...
Loading SW <> Apogee altitude chart data...
Loading historical data...
Loading historical data...
Loading historical data...
Loading historical data...
Loading historical data...
Loading historical data...
Loading historical data...

STARLINK-11613 Visibility forecast

Observer location: undefined°, undefined°

Span
Click to sort rows by Start time (UTC) header in descending order
Start Az.
Max El. time (UTC)
Max El. Az.
Max El.
End time (UTC)
End Az.
5 mins2025-07-01 13:54:47.578Z241.27° WSW2025-07-01 13:56:47.578Z198.846° SSW42.312°2025-07-01 13:59:47.578Z74.731° E
4 mins2025-07-01 15:31:47.578Z294.452° NW2025-07-01 15:32:47.578Z327.365° NNW33.131°2025-07-01 15:35:47.578Z69.028° E
4 mins2025-07-01 17:07:47.578Z296.65° NW2025-07-01 17:09:47.578Z44.537° NE40.18°2025-07-01 17:11:47.578Z92.779° ESE
4 mins2025-07-02 12:46:47.578Z201.261° SSW2025-07-02 12:47:47.578Z167.968° S28.199°2025-07-02 12:50:47.578Z85.111° E
|